Regional Weather Roundup
Issued by NWS

Home | Current Version | Previous Version | Graphics & Text | Print | Product List | Glossary On
Versions: 1 2 3 4 5 6 7 8 9 10 11 12 13 14 15 16 17 18 19 20 21 22 23 24 25 26 27 28 29 30 31 32 33 34 35 36 37 38 39 40 41 42 43 44 45 46 47 48 49 50
000
ASUS43 KDMX 280307
RWRIA

WEATHER ROUNDUP FOR IOWA
NATIONAL WEATHER SERVICE DES MOINES IA
900 PM CST TUE JAN 27 2015

NOTE: "FAIR" INDICATES FEW OR NO CLOUDS BELOW 12,000 FEET WITH NO
SIGNIFICANT WEATHER AND/OR OBSTRUCTIONS TO VISIBILITY.

* - THESE STATIONS ARE NOT NWS STATIONS...THUS NOT UNDER NWS
QUALITY CONTROL.  THEY ALSO DO NOT REPORT WEATHER SUCH
AS PRECIPITATION OR FOG.

IAZ001>003-012>014-020>022-031>034-043>046-280400-
   NORTHWEST IOWA

CITY           SKY/WX    TMP DP  RH WIND       PRES   REMARKS
CARROLL *      CLEAR     34  30  86 SE13      30.08S WCI  25
CHEROKEE *     CLEAR     36  32  87 S5        30.04S WCI  32
DENISON *      CLEAR     37  32  81 SE14      30.03S WCI  29
LE MARS *      CLEAR     37  34  87 SE10G16   30.01F WCI  30
ORANGE CITY *  CLEAR     37  32  81 SE7       30.00F WCI  32
SHELDON *      CLEAR     36  34  93 SE12      30.01F WCI  27
SIOUX CITY     CLEAR     38  31  76 SE8       30.00F WCI  32
SPENCER        CLEAR     34  31  88 SE9       30.05S WCI  27
STORM LAKE *   CLEAR     34  32  93 SE13      30.06R WCI  25
$$

IAZ055>058-069>071-079>083-090>094-280400-
   SOUTHWEST IOWA

CITY           SKY/WX    TMP DP  RH WIND       PRES   REMARKS
ATLANTIC *     CLEAR     37  30  75 SE5       30.07F WCI  34
AUDUBON *      CLEAR     34  28  80 S5        30.08S WCI  30
CLARINDA *     CLEAR     41  32  70 SE9       30.10S
COUNCIL BLFS * CLEAR     39  30  70 SE10      30.03S WCI  32
CRESTON *      CLEAR     32  30  93 SE8       30.10F WCI  25
HARLAN  *      CLEAR     39  34  81 SE8G15    30.09F WCI  34
LAMONI         CLEAR     37  30  75 SE9       30.12R WCI  30
RED OAK *      CLEAR     37  28  70 SE6       30.07F WCI  33
SHENANDOAH *   CLEAR     39  30  70 SE7       30.07S WCI  34
$$

IAZ047>049-059>061-072>074-084-280400-
   CENTRAL IOWA

CITY           SKY/WX    TMP DP  RH WIND       PRES   REMARKS
AMES           CLEAR     30  26  85 SE9       30.14R WCI  22
ANKENY *       CLEAR     30  28  93 SE10      30.14S WCI  21
CHARITON *     CLEAR     32  28  86 SE8       30.14R WCI  25
DES MOINES     CLEAR     33  27  78 SE13      30.14S WCI  24
GRINNELL*      MOCLDY    30  28  93 E9        30.17S WCI  22
KNOXVILLE *    CLEAR     30  27  86 SE12G17   30.14S WCI  21
MARSHALLTOWN   CLOUDY    31  27  85 SE14      30.15S WCI  21
PELLA *        CLEAR     30  28  93 SE10      30.17S WCI  21
PERRY *          N/A     32  30  93 SE10      30.11S WCI  24
$$

IAZ004>006-015-016-023>025-035-036-280400-
   NORTH CENTRAL IOWA

CITY           SKY/WX    TMP DP  RH WIND       PRES   REMARKS
ALGONA *       MOCLDY    32  32 100 SE14      30.09S WCI  22
CLARION *      CLOUDY    32  32 100 SE17G24   30.11F WCI  21
ESTHERVILLE    PTCLDY    32  30  92 SE17      30.06S WCI  21
FORT DODGE *   CLEAR     32  27  80 SE9       30.10R WCI  24
MASON CITY     CLOUDY    30  27  88 SE16      30.14S WCI  19
FOREST CITY *  CLOUDY    32  28  86 SE15      30.12S WCI  22
IOWA FALLS *   CLOUDY    30  28  93 SE14      30.15S WCI  20
$$

IAZ007>011-017>019-026>030-037>042-050>054-066-280400-
   NORTHEAST IOWA

CITY           SKY/WX    TMP DP  RH WIND       PRES   REMARKS
CEDAR RAPIDS   CLOUDY    28  24  85 SE9       30.19F WCI  19
CHARLES CITY * CLOUDY    30  28  93 S12G18    30.16S WCI  21
CLINTON *      CLOUDY    27  21  80 S3        30.25F
DECORAH *      CLOUDY    28  23  80 SE7G13    30.16F WCI  21
DUBUQUE        CLOUDY    25  21  85 S5        30.20F WCI  19
MONTICELLO *   CLOUDY    27  25  93 SE6       30.21S WCI  20
OELWEIN *      CLOUDY    28  25  86 SE12      30.18S WCI  18
WATERLOO       CLOUDY    29  25  85 SE12      30.17F WCI  19
$$

IAZ064-065-067-068-078-280400-
   EAST CENTRAL IOWA

CITY           SKY/WX    TMP DP  RH WIND       PRES   REMARKS
DAVENPORT      CLOUDY    26  21  81 SE6       30.23S WCI  19
IOWA CITY      CLOUDY    28  23  81 SE8       30.22F WCI  20
MT. PLEASANT * CLOUDY    28  25  86 SE9       30.20F WCI  20
MUSCATINE *    CLOUDY    30  25  80 SE6       30.24S WCI  24
QUAD CITIES    CLOUDY    27  22  81 SE7       30.23S WCI  19
$$

IAZ062-063-075>077-085>089-095>099-280400-
   SOUTHEAST IOWA

CITY           SKY/WX    TMP DP  RH WIND       PRES   REMARKS
BURLINGTON     CLOUDY    29  25  85 SE6       30.21S WCI  23
FAIRFIELD *    CLOUDY    30  27  86 E9        30.20S WCI  22
FORT MADISON * CLOUDY    28  27  93 E9        30.22S WCI  20
KEOKUK *       CLOUDY    30  28  93 E9        30.21R WCI  22
OSKALOOSA *      N/A     28  27  93 SE9       30.18S WCI  20
CENTERVILLE *  CLEAR     30  30 100 E8        30.16F WCI  23
OTTUMWA        CLEAR     28  26  92 SE9       30.17F WCI  19
WASHINGTON *   CLOUDY    30  30 100 SE12      30.21S WCI  21
$$

ABBREVIATIONS USED IN REMARKS
   TC - TEMPERATURES IN CELSIUS
  WCI - WIND CHILL INDEX
   HX - HEAT INDEX
  VSB - VISIBILITY
$$



USA.gov is the U.S. government's official web portal to all federal, state and local government web resources and services.